Weather History for Keahole Point, HI

Change the Weather History Date:

Tuesday, March 5, 2013

  Actual Average Record
Temperature  
Mean Temperature 74 °F -  
Max Temperature 81 °F 79 °F 86 °F (2002)
Min Temperature 66 °F 67 °F 63 °F (1990)
Cooling Degree Days 8    
Growing Degree Days 24 (Base 50)    
Moisture  
Dew Point 58 °F    
Average Humidity 58    
Maximum Humidity 73    
Minimum Humidity 45    
Precipitation  
Precipitation 0.00 in - - ()
Sea Level Pressure  
Sea Level Pressure 30.08 in    
Wind  
Wind Speed 6 mph (WNW)    
Max Wind Speed 12 mph    
Max Gust Speed -    
Visibility 10 miles    
Events      
Averages and records for this station are not official NWS values.
T = Trace of Precipitation, MM = Missing Value Source: NWS Daily Summary

Daily Weather History Graph

Daily Weather History Graph

Search for Another Location

Airport:

Trip Planner

Search our weather history database for the weather conditions in past years. The results will help you decide how hot, cold, wet, or windy it might be!

Date:

Astronomy

Mar. 05, 2013 Rise Set
Actual Time 6:40 AM HST 6:30 PM HST
Civil Twilight 6:18 AM HST 6:52 PM HST
Nautical Twilight 5:52 AM HST 7:18 PM HST
Astronomical Twilight 5:27 AM HST 7:44 PM HST
Moon 1:29 AM HST (3/5) 12:54 PM HST (3/5)
Length of Visible Light 12h 34m
Length of Day
11h 50m
Last Quarter, 39% of the Moon is Illuminated
Mar 5
Last Quarter
Mar 11
New
Mar 19
First Quarter
Mar 26
Full
Apr 2
Last Quarter

Hourly Weather History & Observations

Time (HST) Temp. Heat Index Dew Point Humidity Pressure Visibility Wind Dir Wind Speed Gust Speed Precip Events Conditions
12:53 AM 70.0 °F - 57.9 °F 65% 30.09 in 10.0 mi SE 8.1 mph - N/A   Clear
1:53 AM 70.0 °F - 60.1 °F 71% 30.07 in 10.0 mi East 6.9 mph - N/A   Clear
2:53 AM 70.0 °F - 59.0 °F 68% 30.07 in 10.0 mi ENE 5.8 mph - N/A   Mostly Cloudy
3:53 AM 69.1 °F - 59.0 °F 70% 30.06 in 10.0 mi North 4.6 mph - N/A   Mostly Cloudy
4:53 AM 69.1 °F - 59.0 °F 70% 30.06 in 10.0 mi Calm Calm - N/A   Partly Cloudy
5:53 AM 66.9 °F - 57.9 °F 73% 30.07 in 10.0 mi NE 4.6 mph - N/A   Clear
6:53 AM 68.0 °F - 57.0 °F 68% 30.09 in 10.0 mi Calm Calm - N/A   Scattered Clouds
7:53 AM 73.0 °F - 57.9 °F 59% 30.11 in 10.0 mi NNE 4.6 mph - N/A   Scattered Clouds
8:53 AM 77.0 °F - 59.0 °F 54% 30.11 in 10.0 mi NNE 6.9 mph - N/A   Clear
9:53 AM 77.0 °F - 57.0 °F 50% 30.12 in 10.0 mi West 3.5 mph - N/A   Clear
10:53 AM 79.0 °F - 60.1 °F 52% 30.11 in 10.0 mi SSW 10.4 mph - N/A   Clear
11:53 AM 81.0 °F 81.1 °F 57.9 °F 45% 30.09 in 10.0 mi SW 11.5 mph - N/A   Clear
12:53 PM 80.1 °F 81.2 °F 62.1 °F 54% 30.05 in 10.0 mi WSW 10.4 mph - N/A   Clear
1:53 PM 80.1 °F 80.9 °F 60.1 °F 50% 30.04 in 10.0 mi SW 10.4 mph - N/A   Mostly Cloudy
2:53 PM 79.0 °F - 57.9 °F 48% 30.03 in 10.0 mi West 9.2 mph - N/A   Scattered Clouds
3:53 PM 79.0 °F - 59.0 °F 50% 30.04 in 10.0 mi West 6.9 mph - N/A   Scattered Clouds
4:53 PM 77.0 °F - 60.1 °F 56% 30.05 in 10.0 mi WSW 3.5 mph - N/A   Mostly Cloudy
5:53 PM 77.0 °F - 59.0 °F 54% 30.06 in 10.0 mi WNW 5.8 mph - N/A   Scattered Clouds
6:53 PM 75.9 °F - 57.9 °F 54% 30.08 in 10.0 mi WNW 3.5 mph - N/A   Mostly Cloudy
7:53 PM 75.9 °F - 57.9 °F 54% 30.09 in 10.0 mi Calm Calm - N/A   Mostly Cloudy
8:53 PM 75.0 °F - 57.0 °F 53% 30.11 in 10.0 mi Calm Calm - N/A   Partly Cloudy
9:53 PM 75.0 °F - 57.9 °F 55% 30.11 in 10.0 mi Calm Calm - N/A   Scattered Clouds
10:53 PM 72.0 °F - 55.9 °F 57% 30.11 in 10.0 mi Calm Calm - N/A   Clear
11:53 PM 70.0 °F - 57.0 °F 63% 30.10 in 10.0 mi NNE 4.6 mph - N/A   Scattered Clouds